This is the latest recevied weather packets stored in our database for station/object EA1JAV-11. If no packets are shown the sender has not sent any weather packets the latest 10 day(s).
| Time | Temp. | Humidity | Pressure | Rain* | Wind** | Luminosity | Snow |
|---|---|---|---|---|---|---|---|
| 1777997306 | 18.89° C | 47% | 991.5 hPa | - | - | - | - |
| 1777995506 | 18.89° C | 47% | 991.4 hPa | - | - | - | - |
| 1777993706 | 20° C | 47% | 991.3 hPa | - | - | - | - |
| 1777991906 | 18.89° C | 49% | 991.4 hPa | - | - | - | - |
| 1777988306 | 17.22° C | 51% | 991.8 hPa | - | - | - | - |
| 1777986506 | 16.67° C | 52% | 991.7 hPa | - | - | - | - |
| 1777984706 | 16.67° C | 51% | 991.6 hPa | - | - | - | - |
| 1777982906 | 15.56° C | 51% | 991.8 hPa | - | - | - | - |
| 1777981106 | 16.11° C | 50% | 991.8 hPa | - | - | - | - |
| 1777979306 | 16.67° C | 50% | 991.7 hPa | - | - | - | - |
| 1777977505 | 16.67° C | 51% | 991.9 hPa | - | - | - | - |
| 1777975705 | 15.56° C | 51% | 991.9 hPa | - | - | - | - |
| 1777973905 | 15° C | 51% | 991.9 hPa | - | - | - | - |
| 1777972105 | 15° C | 51% | 991.9 hPa | - | - | - | - |
| 1777970305 | 15° C | 51% | 991.9 hPa | - | - | - | - |
| 1777968505 | 14.44° C | 51% | 991.9 hPa | - | - | - | - |
| 1777966705 | 13.89° C | 51% | 991.9 hPa | - | - | - | - |
| 1777964905 | 13.89° C | 51% | 991.8 hPa | - | - | - | - |
| 1777963105 | 13.89° C | 50% | 991.7 hPa | - | - | - | - |
| 1777961305 | 13.33° C | 50% | 991.4 hPa | - | - | - | - |
| 1777959505 | 13.33° C | 50% | 991.3 hPa | - | - | - | - |
| 1777957705 | 13.33° C | 50% | 991.2 hPa | - | - | - | - |
| 1777955905 | 13.33° C | 50% | 991.2 hPa | - | - | - | - |
| 1777954105 | 13.33° C | 50% | 991.4 hPa | - | - | - | - |
| 1777952304 | 13.33° C | 49% | 991.5 hPa | - | - | - | - |
* Rain since midnight (hover to see other rain measurements)
** Current wind speed in m/s (hover to see current wind gust speed)